Weather History for Fort Sill, OK

Change the Weather History Date:

Thursday, February 9, 2012

  Actual Average Record
Temperature  
Mean Temperature 36 °F -  
Max Temperature 42 °F 51 °F 85 °F (1957)
Min Temperature 29 °F 27 °F 6 °F (1979)
Degree Days  
Heating Degree Days 30    
Moisture  
Dew Point 36 °F    
Average Humidity 93    
Maximum Humidity 100    
Minimum Humidity 81    
Precipitation  
Precipitation 0.16 in - - ()
Sea Level Pressure  
Sea Level Pressure 30.20 in    
Wind  
Wind Speed 6 mph (East)    
Max Wind Speed 16 mph    
Max Gust Speed -    
Visibility 8 miles    
Events Rain    
Averages and records for this station are not official NWS values.
T = Trace of Precipitation, MM = Missing Value Source: NWS Daily Summary

Daily Weather History Graph

Daily Weather History Graph

Search for Another Location

Airport:

Trip Planner

Search our weather history database for the weather conditions in past years. The results will help you decide how hot, cold, wet, or windy it might be!

Date:

Astronomy

Feb. 09, 2012 Rise Set
Actual Time 7:25 AM CST 6:10 PM CST
Civil Twilight 6:59 AM CST 6:36 PM CST
Nautical Twilight 6:29 AM CST 7:06 PM CST
Astronomical Twilight 6:00 AM CST 7:35 PM CST
Moon 8:31 PM CST (2/9) 8:09 AM CST (2/9)
Length of Visible Light 11h 37m
Length of Day
10h 45m
Waning Gibbous, 96% of the Moon is Illuminated
Feb 9
Waning Gibbous
Feb 14
Last Quarter
Feb 21
New
Feb 29
First Quarter
Mar 8
Full

Hourly Weather History & Observations

Time (CST) Temp. Windchill Dew Point Humidity Pressure Visibility Wind Dir Wind Speed Gust Speed Precip Events Conditions
12:55 AM 29.8 °F 26.3 °F 26.6 °F 88% 30.34 in 10.0 mi ENE 3.5 mph - N/A   Clear
1:55 AM 29.3 °F - 27.0 °F 91% 30.34 in 10.0 mi Calm Calm - N/A   Clear
2:55 AM 29.5 °F - 27.5 °F 92% 30.32 in 10.0 mi Calm Calm - N/A   Clear
3:55 AM 29.3 °F - 27.7 °F 94% 30.31 in 10.0 mi Calm Calm - N/A   Mostly Cloudy
4:55 AM 29.3 °F - 28.0 °F 95% 30.30 in 10.0 mi Calm Calm - N/A   Mostly Cloudy
5:39 AM 30.2 °F - 28.4 °F 93% 30.29 in 10.0 mi Calm Calm - N/A   Overcast
5:55 AM 30.6 °F 27.1 °F 30.0 °F 98% 30.29 in 10.0 mi SE 3.5 mph - N/A   Overcast
6:26 AM 30.2 °F 23.4 °F 30.2 °F 100% 30.28 in 10.0 mi South 6.9 mph - N/A   Overcast
6:55 AM 30.9 °F 27.5 °F 30.6 °F 99% 30.28 in 10.0 mi SE 3.5 mph - N/A   Scattered Clouds
7:55 AM 32.5 °F 29.3 °F 32.4 °F 99% 30.29 in 10.0 mi South 3.5 mph - N/A   Overcast
8:55 AM 34.3 °F 27.0 °F 34.2 °F 99% 30.29 in 9.0 mi SSE 9.2 mph - N/A   Overcast
9:55 AM 36.3 °F 29.5 °F 35.6 °F 97% 30.29 in 10.0 mi SSE 9.2 mph - N/A   Overcast
10:55 AM 38.1 °F 31.7 °F 35.6 °F 91% 30.27 in 10.0 mi SE 9.2 mph - N/A   Overcast
11:55 AM 39.4 °F 32.3 °F 35.6 °F 86% 30.24 in 10.0 mi SSE 11.5 mph - N/A   Overcast
12:33 PM 41.0 °F 34.3 °F 35.6 °F 81% 30.22 in 10.0 mi SE 11.5 mph - N/A   Overcast
12:55 PM 40.8 °F 34.1 °F 36.1 °F 83% 30.20 in 10.0 mi South 11.5 mph - N/A   Overcast
1:55 PM 41.9 °F 35.9 °F 36.7 °F 82% 30.15 in 10.0 mi SSE 10.4 mph - N/A   Overcast
2:55 PM 41.7 °F 34.8 °F 36.7 °F 82% 30.12 in 10.0 mi SE 12.7 mph - N/A   Overcast
3:55 PM 41.9 °F 35.9 °F 37.2 °F 83% 30.11 in 10.0 mi SE 10.4 mph - N/A   Overcast
4:30 PM 42.8 °F 36.2 °F 37.4 °F 81% 30.11 in 10.0 mi SSE 12.7 mph - N/A   Overcast
4:55 PM 42.4 °F 37.5 °F 37.4 °F 82% 30.12 in 10.0 mi SSE 8.1 mph - N/A   Overcast
5:55 PM 41.9 °F 36.9 °F 36.9 °F 82% 30.11 in 10.0 mi SE 8.1 mph - N/A   Overcast
6:27 PM 41.0 °F 36.4 °F 37.4 °F 87% 30.11 in 10.0 mi SE 6.9 mph - N/A   Overcast
6:36 PM 41.0 °F 36.4 °F 37.4 °F 87% 30.11 in 10.0 mi ESE 6.9 mph - N/A   Overcast
6:40 PM 41.0 °F 36.4 °F 37.4 °F 87% 30.10 in 10.0 mi SE 6.9 mph - N/A Rain Light Rain
6:55 PM 41.2 °F 36.6 °F 38.5 °F 90% 30.10 in 9.0 mi ESE 6.9 mph - 0.00 in Rain Light Rain
7:55 PM 40.8 °F 34.1 °F 40.6 °F 99% 30.14 in 7.0 mi North 11.5 mph - 0.04 in Rain Light Rain
8:04 PM 41.0 °F 33.5 °F 41.0 °F 100% 30.13 in 7.0 mi North 13.8 mph - N/A Rain Light Rain
8:28 PM 41.0 °F 32.8 °F 39.2 °F 93% 30.14 in 7.0 mi North 16.1 mph - N/A Rain Light Rain
8:33 PM 41.0 °F 33.1 °F 41.0 °F 100% 30.14 in 6.0 mi NNE 15.0 mph - N/A Rain Light Rain
8:55 PM 40.3 °F 32.2 °F 40.3 °F 100% 30.16 in 6.0 mi North 15.0 mph - 0.03 in Rain Light Rain
9:42 PM 41.0 °F 33.5 °F 41.0 °F 100% 30.17 in 6.0 mi North 13.8 mph - N/A Rain Light Rain
9:43 PM 41.0 °F 33.1 °F 41.0 °F 100% 30.17 in 6.0 mi North 15.0 mph - N/A Rain Light Rain
9:46 PM 41.0 °F 33.1 °F 41.0 °F 100% 30.17 in 6.0 mi North 15.0 mph - N/A Rain Light Rain
9:55 PM 40.1 °F 33.2 °F 40.1 °F 100% 30.17 in 6.0 mi North 11.5 mph - 0.04 in Rain Light Rain
10:31 PM 39.2 °F 31.6 °F 39.2 °F 100% 30.17 in 6.0 mi North 12.7 mph - N/A Rain Light Rain
10:41 PM 39.2 °F 32.0 °F 39.2 °F 100% 30.17 in 7.0 mi North 11.5 mph - N/A Rain Light Rain
10:47 PM 39.2 °F 32.0 °F 39.2 °F 100% 30.17 in 6.0 mi North 11.5 mph - N/A Rain Light Rain
10:55 PM 38.7 °F 32.4 °F 38.7 °F 100% 30.16 in 6.0 mi NNE 9.2 mph - 0.04 in Rain Light Rain
11:27 PM 39.2 °F 35.9 °F 39.2 °F 100% 30.15 in 4.0 mi NNE 4.6 mph - N/A Rain Light Rain
11:55 PM 38.3 °F 33.9 °F 38.3 °F 100% 30.13 in 5.0 mi ENE 5.8 mph - 0.01 in   Light Drizzle